Погода в Авсалларе

Турция     36°39′22″N   31°46′34″E
темп.,
°C
ветер,
м/с
пор.,
м/с
влажн.,
%
обл.,
%
осадки,
мм/ч
давл.,
гПа
погр.,
м
18 апреля, вс
вс1800:00+18св3337100 0.0 101821
03:00+17св2233100 0.0 101714
06:00+18св333149 0.0 101727
09:00+23всв2235100 0.0 101756
12:00+27ююз2225100 0.0 1017558
15:00+27ю2323100 0.0 1016691
18:00+24ю113941 0.0 101647
21:00+21св2237100 0.0 101617
19 апреля, пн
пн1900:00+21всв2233100 0.0 101519
03:00+21всв3330100 0.0 101422
06:00+21ссв2131100 0.0 101311
09:00+24с1135100 0.0 101486
12:00+28ююз1323100 0.0 1012740
15:00+27ю2327100 0.0 1011485
18:00+24зюз2243100 0.0 100944
21:00+20всв2244100 0.0 100818
20 апреля, вт
вт2000:00+18вюв1152100 0.0 100811
03:00+17вюв3666100 0.0 1008153
06:00+16ююв3586100 0.2 1009179
09:00+17юв496973 0.2 1010647
12:00+20ююв57432 0.0 1010917
15:00+20ююв56571 0.0 1011893
18:00+17ююв35700 0.0 1012526
21:00+14вюв34850 0.0 101396
21 апреля, ср
ср2100:00+13вюв22830 0.0 101440
03:00+11всв11855 0.0 101413
06:00+11всв11840 0.0 101510
09:00+16з21681 0.0 1016508
12:00+20юз32520 0.0 10161148
15:00+20ююз43581 0.0 10161091
18:00+17ю22700 0.0 1017601
21:00+13юв119027 0.0 101813
22 апреля, чт
чт2200:00+13вюв22880 0.0 101815
03:00+12св11860 0.0 101810
06:00+11в11820 0.0 101811
09:00+16ю11660 0.0 1019435
12:00+20юз32565 0.0 1019962
15:00+20юз32555 0.0 1018895
18:00+19зюз226011 0.0 1018407
21:00+14с1180100 0.0 101910